FW6482 Weather Reports


Display with metric or nautical units.
time (UTC)temp
F
wind
direction
speed
MPH
gust
MPH
rain 1hr
in
rain 24hr
in
rain mn
in
humidity
%
barometer
mb
20260905073033 60 267 3.0 10.0 0.00 0.23 0.01 95 1018.1
20260905071526 59 251 3.0 10.0 0.00 0.23 0.01 96 1017.8
20260905070022 58 221 2.0 5.0 0.00 0.23 0.01 96 1017.7
20260905064528 57 238 1.0 3.0 0.00 0.23 0.01 96 1017.6
20260905063019 57 238 0.0 3.0 0.00 0.23 0.01 95 1017.5
20260905061518 56 238 1.0 3.0 0.00 0.23 0.01 95 1017.3
20260905060016 56 238 0.0 0.0 0.00 0.23 0.01 95 1017.2
20260905054514 55 238 0.0 1.0 0.00 0.23 0.01 95 1017.1
20260905053011 55 238 0.0 2.0 0.00 0.23 0.01 95 1016.8
20260905051520 55 238 1.0 2.0 0.00 0.23 0.01 95 1016.7
20260905050006 55 238 0.0 2.0 0.00 0.23 0.01 95 1016.4
20260905044503 55 238 1.0 4.0 0.00 0.23 0.01 95 1016.3
20260905043105 56 238 1.0 3.0 0.00 0.23 0.01 94 1016.1
20260905041558 56 238 0.0 4.0 0.00 0.23 0.01 94 1015.7
20260905040057 56 239 1.0 5.0 0.00 0.23 0.01 94 1015.5
20260905034556 56 239 1.0 4.0 0.01 0.23 0.01 94 1015.5
20260905033100 56 239 1.0 4.0 0.01 0.23 0.01 94 1015.6
20260905031558 57 239 0.0 3.0 0.01 0.23 0.01 93 1015.6
20260905030059 57 239 0.0 0.0 0.01 0.23 0.01 94 1015.6
20260905024620 58 239 0.0 2.0 0.00 0.22 0.00 94 1015.4
20260905023050 58 239 0.0 2.0 0.00 0.22 0.00 94 1015.3
20260905021545 59 239 0.0 2.0 0.00 0.22 0.00 94 1015.2
20260905020049 59 239 0.0 3.0 0.00 0.22 0.00 94 1015.3
20260905014544 59 239 1.0 3.0 0.00 0.22 0.00 94 1015.1
20260905013038 60 239 0.0 3.0 0.00 0.22 0.00 94 1014.9
20260905011541 60 239 0.0 2.0 0.00 0.22 0.00 94 1015.0
20260905010033 61 239 0.0 0.0 0.00 0.22 0.00 94 1014.9
20260905004533 61 239 0.0 3.0 0.00 0.22 0.00 94 1014.7
20260905003032 61 239 0.0 1.0 0.00 0.22 0.00 94 1014.7
20260905001530 61 239 0.0 2.0 0.00 0.22 0.00 94 1014.7
20260905000029 62 239 0.0 3.0 0.00 0.22 0.00 94 1014.7
20260904234538 62 239 0.0 2.0 0.00 0.22 0.00 94 1014.7
20260904233036 62 239 0.0 2.0 0.00 0.22 0.00 94 1014.7
20260904231525 62 239 0.0 0.0 0.00 0.22 0.00 94 1014.4
20260904230030 62 239 0.0 2.0 0.00 0.22 0.00 94 1014.2
20260904224536 62 239 0.0 2.0 0.02 0.22 0.00 94 1014.1
20260904223021 62 239 0.0 1.0 0.02 0.22 0.00 94 1014.0
20260904221520 62 239 0.0 0.0 0.04 0.22 0.00 94 1014.0
20260904220020 62 239 0.0 1.0 0.04 0.22 0.00 94 1013.9
20260904214535 63 239 0.0 2.0 0.02 0.20 0.20 94 1014.0
20260904213018 63 239 2.0 8.0 0.02 0.20 0.20 94 1013.9
20260904211517 63 327 0.0 3.0 0.00 0.18 0.18 94 1013.6
20260904210017 63 350 1.0 3.0 0.00 0.18 0.18 94 1013.4
20260904204515 63 355 0.0 2.0 0.00 0.18 0.18 94 1013.5
20260904203014 63 355 0.0 2.0 0.00 0.18 0.18 93 1013.2
20260904201514 63 355 0.0 3.0 0.00 0.18 0.18 93 1013.1
20260904200024 63 355 0.0 2.0 0.00 0.18 0.18 93 1013.2
20260904194515 63 355 0.0 4.0 0.01 0.18 0.18 93 1013.0
20260904193015 62 5 0.0 4.0 0.02 0.18 0.18 93 1012.9
20260904191518 62 263 1.0 6.0 0.02 0.18 0.18 93 1012.8
20260904190012 62 294 0.0 3.0 0.02 0.18 0.18 93 1012.5
20260904184518 62 294 1.0 4.0 0.03 0.17 0.17 92 1012.4
20260904183009 62 296 2.0 5.0 0.13 0.17 0.17 91 1012.1
20260904181509 61 240 4.0 11.0 0.16 0.17 0.17 91 1011.9
20260904180006 61 238 3.0 6.0 0.17 0.17 0.17 89 1011.8
20260904174503 63 246 3.0 12.0 0.14 0.14 0.14 86 1012.0
20260904173103 65 272 2.0 12.0 0.05 0.05 0.05 85 1011.9
20260904171600 67 200 2.0 9.0 0.01 0.01 0.01 81 1011.4
20260904170056 69 233 3.0 10.0 0.00 0.00 0.00 75 1011.0
20260904164558 74 320 5.0 12.0 0.00 0.00 0.00 67 1010.7
20260904163101 76 249 10.0 21.0 0.00 0.00 0.00 62 1009.6
20260904161554 77 257 9.0 23.0 0.00 0.00 0.00 61 1009.6
20260904160053 77 240 8.0 22.0 0.00 0.00 0.00 61 1009.7
20260904154552 78 221 11.0 21.0 0.00 0.00 0.00 59 1009.5
20260904153101 78 282 9.0 18.0 0.00 0.00 0.00 59 1009.5
20260904151551 79 240 7.0 17.0 0.00 0.00 0.00 58 1009.5
20260904150051 79 232 4.0 20.0 0.00 0.00 0.00 59 1009.6
20260904144550 79 248 9.0 19.0 0.00 0.00 0.00 55 1009.6
20260904143049 80 263 10.0 20.0 0.00 0.00 0.00 54 1009.4
20260904141609 80 256 8.0 19.0 0.00 0.00 0.00 56 1009.7
20260904140048 80 227 7.0 18.0 0.00 0.00 0.00 58 1009.7
20260904134547 79 218 11.0 19.0 0.00 0.00 0.00 57 1009.6
20260904133047 80 229 11.0 20.0 0.00 0.00 0.00 57 1009.4
20260904131605 80 217 7.0 17.0 0.00 0.00 0.00 58 1009.3
20260904130046 80 256 11.0 23.0 0.00 0.00 0.00 57 1009.3
20260904124545 80 240 10.0 20.0 0.00 0.00 0.00 57 1009.4
20260904123102 81 236 7.0 17.0 0.00 0.00 0.00 57 1009.6
20260904121643 81 248 9.0 24.0 0.00 0.00 0.00 56 1009.6
20260904120042 82 234 8.0 23.0 0.00 0.00 0.00 55 1009.6
20260904114544 82 269 11.0 23.0 0.00 0.00 0.00 56 1009.6
20260904113041 82 225 9.0 20.0 0.00 0.00 0.00 56 1009.6
20260904111547 83 274 13.0 24.0 0.00 0.00 0.00 55 1009.6
20260904110038 83 228 11.0 26.0 0.00 0.00 0.00 56 1009.8
20260904104532 80 229 14.0 23.0 0.00 0.00 0.00 59 1010.0
20260904103031 80 227 11.0 23.0 0.00 0.00 0.00 61 1010.2
20260904101526 78 275 8.0 23.0 0.00 0.00 0.00 64 1010.3
20260904100023 77 229 8.0 21.0 0.00 0.00 0.00 65 1010.5
20260904094520 76 242 9.0 21.0 0.00 0.00 0.00 67 1010.6
20260904093018 76 234 8.0 19.0 0.00 0.00 0.00 68 1010.7
20260904091517 76 246 7.0 24.0 0.00 0.00 0.00 68 1010.6
20260904090022 76 240 11.0 20.0 0.00 0.00 0.00 68 1010.6
20260904084514 76 250 8.0 19.0 0.00 0.00 0.00 69 1010.5
20260904083016 76 232 9.0 14.0 0.00 0.00 0.00 70 1010.5
20260904081511 75 247 6.0 12.0 0.00 0.00 0.00 72 1010.6
20260904080009 75 211 5.0 15.0 0.00 0.00 0.00 73 1010.9
20260904074509 75 239 6.0 12.0 0.00 0.00 0.00 73 1011.0